Weather History for Andrews, NC

Change the Weather History Date:

Saturday, March 23, 2013

  Actual Average (KTYS) Record (KTYS)
Temperature  
Mean Temperature 47 °F 52 °F  
Max Temperature 56 °F 64 °F 85 °F (1907)
Min Temperature 38 °F 41 °F 17 °F (1895)
Degree Days  
Heating Degree Days 18 13  
Month to date heating degree days 366  
Since 1 July heating degree days 3262  
Cooling Degree Days 0 0  
Month to date cooling degree days 0  
Year to date cooling degree days 0  
Moisture  
Dew Point 41 °F    
Average Humidity 84    
Maximum Humidity 97    
Minimum Humidity 67    
Precipitation  
Precipitation 0.01 in 0.14 in 1.40 in (1904)
Month to date precipitation 3.17  
Year to date precipitation 11.75  
Snow  
Snow 0.00 in 0.00 in - ()
Month to date snowfall 0.7  
Since 1 July snowfall 5.8  
Snow Depth -    
Sea Level Pressure  
Sea Level Pressure 29.92 in    
Wind  
Wind Speed 1 mph (WSW)    
Max Wind Speed 6 mph    
Max Gust Speed -    
Visibility 10 miles    
Events Rain    
T = Trace of Precipitation, MM = Missing Value Source: NWS Daily Summary

Daily Weather History Graph

Daily Weather History Graph

Search for Another Location

Airport:

Trip Planner

Search our weather history database for the weather conditions in past years. The results will help you decide how hot, cold, wet, or windy it might be!

Date:

Astronomy

Mar. 23, 2013 Rise Set
Actual Time 7:34 AM EDT 7:49 PM EDT
Civil Twilight 7:09 AM EDT 8:15 PM EDT
Nautical Twilight 6:39 AM EDT 8:44 PM EDT
Astronomical Twilight 6:09 AM EDT 9:15 PM EDT
Moon 4:22 PM EDT (3/23) 5:02 AM EDT (3/23)
Length of Visible Light 13h 06m
Length of Day
12h 15m
Waxing Gibbous, 85% of the Moon is Illuminated
Mar 23
Waxing Gibbous
Mar 27
Full
Apr 3
Last Quarter
Apr 10
New
Apr 18
First Quarter

Hourly Weather History & Observations

Time (EDT) Temp. Windchill Dew Point Humidity Pressure Visibility Wind Dir Wind Speed Gust Speed Precip Events Conditions
12:15 AM 40.6 °F - 31.5 °F 70% 30.01 in 10.0 mi Calm Calm - N/A   Overcast
12:35 AM 40.8 °F - 32.2 °F 71% 30.00 in 10.0 mi Calm Calm - N/A   Overcast
12:55 AM 40.3 °F - 31.3 °F 70% 30.00 in 10.0 mi Calm Calm - N/A   Overcast
1:15 AM 40.6 °F - 30.6 °F 67% 30.00 in 10.0 mi Calm Calm - N/A   Overcast
1:35 AM 39.7 °F - 33.1 °F 77% 29.99 in 10.0 mi Calm Calm - N/A Rain Light Rain
1:55 AM 39.2 °F - 33.8 °F 81% 30.00 in 10.0 mi Calm Calm - N/A Rain Rain
2:15 AM 38.8 °F - 34.5 °F 84% 29.99 in 10.0 mi Calm Calm - N/A   Overcast
2:35 AM 38.8 °F - 35.8 °F 89% 29.99 in 10.0 mi Calm Calm - N/A Rain Rain
2:55 AM 38.8 °F - 35.8 °F 89% 29.99 in 10.0 mi Calm Calm - N/A   Overcast
3:15 AM 38.8 °F - 36.0 °F 89% 29.97 in 10.0 mi Calm Calm - N/A   Overcast
3:35 AM 39.2 °F - 35.1 °F 85% 29.97 in 10.0 mi Calm Calm - N/A   Overcast
3:55 AM 39.2 °F - 36.0 °F 88% 29.97 in 10.0 mi Calm Calm - N/A   Overcast
4:15 AM 39.2 °F - 36.0 °F 88% 29.96 in 10.0 mi Calm Calm - N/A   Overcast
4:35 AM 39.6 °F - 34.9 °F 83% 29.96 in 10.0 mi Calm Calm - N/A   Overcast
4:55 AM 39.7 °F - 36.3 °F 88% 29.95 in 10.0 mi Calm Calm - N/A   Overcast
5:15 AM 39.6 °F - 36.0 °F 87% 29.95 in 10.0 mi Calm Calm - N/A Rain Rain
5:35 AM 39.4 °F - 36.0 °F 88% 29.95 in 10.0 mi Calm Calm - N/A Rain Light Rain
5:55 AM 39.2 °F - 36.9 °F 91% 29.96 in 7.0 mi Calm Calm - N/A Rain Rain
6:15 AM 39.0 °F - 37.0 °F 93% 29.96 in 10.0 mi Calm Calm - N/A Rain Rain
6:35 AM 38.7 °F 36.3 °F 37.4 °F 95% 29.97 in 5.0 mi North 3.5 mph - 0.01 in Rain Rain
6:55 AM 38.8 °F - 37.2 °F 94% 29.97 in 7.0 mi Calm Calm - 0.01 in Rain Light Rain
7:15 AM 38.8 °F - 37.4 °F 95% 29.98 in 10.0 mi Calm Calm - N/A Rain Light Rain
7:35 AM 38.7 °F - 37.8 °F 97% 29.98 in 7.0 mi Calm Calm - N/A Rain Light Rain
7:55 AM 38.7 °F - 37.4 °F 95% 29.98 in 10.0 mi Calm Calm - N/A   Overcast
8:15 AM 39.2 °F - 37.8 °F 95% 29.99 in 10.0 mi Calm Calm - N/A   Overcast
8:35 AM 39.2 °F - 38.3 °F 97% 30.00 in 10.0 mi Calm Calm - N/A   Overcast
9:15 AM 40.1 °F - 38.5 °F 94% 29.99 in 10.0 mi Calm Calm - N/A   Overcast
9:35 AM 40.1 °F 38.0 °F 38.8 °F 95% 29.99 in 10.0 mi SSE 3.5 mph - N/A   Overcast
9:55 AM 40.3 °F - 38.7 °F 94% 29.99 in 10.0 mi Calm Calm - N/A   Overcast
10:15 AM 40.8 °F - 39.2 °F 94% 29.98 in 10.0 mi Calm Calm - N/A   Overcast
10:35 AM 41.9 °F - 39.6 °F 91% 29.97 in 10.0 mi Calm Calm - N/A   Overcast
10:55 AM 42.1 °F - 39.7 °F 91% 29.98 in 10.0 mi Calm Calm - N/A   Overcast
11:15 AM 42.4 °F - 40.1 °F 91% 29.98 in 10.0 mi Calm Calm - N/A   Overcast
11:35 AM 43.3 °F - 40.8 °F 91% 29.97 in 10.0 mi Calm Calm - N/A   Overcast
11:55 AM 44.4 °F - 41.0 °F 88% 29.98 in 10.0 mi Calm Calm - N/A   Overcast
12:15 PM 45.7 °F 44.4 °F 42.1 °F 87% 29.97 in 10.0 mi East 3.5 mph - N/A   Overcast
12:35 PM 46.8 °F - 42.8 °F 86% 29.96 in 10.0 mi Calm Calm - N/A   Overcast
12:55 PM 47.7 °F - 43.2 °F 84% 29.95 in 10.0 mi Calm Calm - N/A   Overcast
1:15 PM 49.3 °F - 43.7 °F 81% 29.95 in 10.0 mi Calm Calm - N/A   Overcast
1:35 PM 49.8 °F - 43.0 °F 77% 29.94 in 10.0 mi Calm Calm - N/A   Overcast
1:55 PM 50.5 °F - 43.0 °F 75% 29.93 in 10.0 mi Calm Calm - N/A   Overcast
2:15 PM 52.0 °F - 43.9 °F 74% 29.92 in 10.0 mi Calm Calm - N/A   Overcast
2:35 PM 52.7 °F - 44.6 °F 74% 29.91 in 10.0 mi West 4.6 mph - N/A   Overcast
2:55 PM 52.7 °F - 44.8 °F 74% 29.90 in 10.0 mi West 4.6 mph - N/A   Overcast
3:15 PM 52.7 °F - 44.8 °F 74% 29.90 in 10.0 mi West 4.6 mph - N/A   Overcast
3:35 PM 53.2 °F - 45.3 °F 74% 29.88 in 10.0 mi Calm Calm - N/A   Overcast
3:55 PM 54.7 °F - 45.1 °F 70% 29.88 in 10.0 mi Calm Calm - N/A   Overcast
4:15 PM 55.0 °F - 45.7 °F 71% 29.87 in 10.0 mi Calm Calm - N/A   Mostly Cloudy
4:35 PM 56.3 °F - 45.7 °F 68% 29.86 in 10.0 mi SE 3.5 mph - N/A   Overcast
4:55 PM 55.8 °F - 46.0 °F 70% 29.86 in 10.0 mi Calm Calm - N/A   Overcast
5:15 PM 55.8 °F - 46.0 °F 70% 29.85 in 10.0 mi Calm Calm - N/A   Overcast
5:35 PM 55.9 °F - 46.4 °F 70% 29.85 in 10.0 mi Calm Calm - N/A   Overcast
5:55 PM 56.1 °F - 46.8 °F 71% 29.85 in 10.0 mi SW 3.5 mph - N/A   Overcast
6:15 PM 55.8 °F - 46.9 °F 72% 29.86 in 10.0 mi West 4.6 mph - N/A   Overcast
6:35 PM 55.8 °F - 47.5 °F 74% 29.86 in 10.0 mi WSW 4.6 mph - N/A   Overcast
6:55 PM 55.8 °F - 48.0 °F 75% 29.86 in 10.0 mi Calm Calm - N/A   Overcast
7:15 PM 55.4 °F - 47.3 °F 74% 29.87 in 10.0 mi WSW 4.6 mph - N/A   Scattered Clouds
7:35 PM 54.0 °F - 47.5 °F 79% 29.86 in 10.0 mi West 4.6 mph - N/A   Scattered Clouds
7:55 PM 53.1 °F - 47.3 °F 81% 29.84 in 10.0 mi Calm Calm - N/A   Scattered Clouds
8:15 PM 50.7 °F - 47.5 °F 89% 29.83 in 10.0 mi Calm Calm - N/A   Scattered Clouds
8:35 PM 50.2 °F - 46.8 °F 88% 29.82 in 10.0 mi Calm Calm - N/A   Mostly Cloudy
8:55 PM 49.1 °F - 46.4 °F 90% 29.82 in 10.0 mi Calm Calm - N/A   Overcast
9:15 PM 48.9 °F - 46.0 °F 90% 29.82 in 10.0 mi Calm Calm - N/A   Scattered Clouds
9:55 PM 45.9 °F - 44.2 °F 94% 29.83 in 10.0 mi Calm Calm - N/A   Scattered Clouds
10:15 PM 45.5 °F 42.5 °F 44.4 °F 96% 29.82 in 10.0 mi NE 5.8 mph - N/A   Overcast
10:35 PM 45.5 °F 43.2 °F 44.2 °F 95% 29.77 in 10.0 mi ESE 4.6 mph - N/A   Scattered Clouds
10:55 PM 46.0 °F 43.9 °F 43.7 °F 92% 29.78 in 10.0 mi WSW 4.6 mph - N/A   Clear
11:15 PM 45.5 °F 43.2 °F 44.6 °F 97% 29.79 in 10.0 mi SW 4.6 mph - N/A   Scattered Clouds
11:35 PM 46.6 °F - 45.5 °F 96% 29.80 in 10.0 mi WSW 4.6 mph - N/A   Overcast
11:55 PM 48.2 °F - 45.9 °F 92% 29.77 in 10.0 mi Calm Calm - N/A   Overcast